period_start,C,m1,H,J0,J1,J2,J3,J4,J5,JA,JB,JC,JD,JJ,JK,JN,#
2014-12-14 00:00:17,0.19,1.92,0.00,19.31,24.07,27.42,4.96,27.08,1032.73,2041.99,2773.07,2789.55,3024.45,350.43,358.09,9.44,0000 0000 0000 0000 000000
2014-12-14 00:05:18,0.20,1.93,0.00,19.31,24.07,27.40,4.97,27.11,1032.73,2041.99,2771.15,2788.00,3022.70,350.10,357.70,9.47,0000 0000 0000 0000 000000
2014-12-14 00:10:19,0.20,1.94,0.00,19.27,24.07,27.40,5.00,27.19,1032.73,2041.99,2769.13,2786.54,3021.15,350.34,358.05,9.50,0000 0000 0000 0000 000000
2014-12-14 00:15:21,0.21,1.94,0.00,19.21,24.07,27.41,4.99,27.10,1032.73,2041.99,2767.00,2785.01,3019.57,350.76,358.55,9.53,0000 0000 0000 0000 000000
2014-12-14 00:20:22,0.21,1.95,0.00,19.30,24.07,27.40,5.00,27.18,1032.73,2041.99,2764.85,2783.53,3017.91,349.80,357.46,9.56,0000 0000 0000 0000 000000
2014-12-14 00:25:23,0.19,1.95,0.00,19.34,24.07,27.37,4.94,27.08,1032.75,2041.99,2763.00,2781.99,3016.36,350.36,358.08,9.59,0000 0000 0000 0000 000000
2014-12-14 00:30:25,0.20,1.96,0.00,19.28,24.07,27.37,4.90,27.21,1032.78,2041.99,2761.09,2780.59,3014.71,349.78,357.43,9.61,0000 0000 0000 0000 000000
2014-12-14 00:35:26,0.19,1.97,0.00,19.17,24.07,27.40,4.93,27.18,1032.75,2041.99,2759.13,2779.11,3013.08,349.46,356.93,9.64,0000 0000 0000 0000 000000
2014-12-14 00:40:27,0.22,1.97,0.00,19.30,24.07,27.38,5.01,27.43,1032.75,2041.99,2756.95,2777.62,3011.61,349.84,357.45,9.67,0000 0000 0000 0000 000000
2014-12-14 00:45:28,0.20,1.98,0.00,19.30,24.07,27.39,5.01,27.12,1032.78,2041.99,2754.79,2776.13,3010.05,350.58,358.16,9.70,0000 0000 0000 0000 000000
2014-12-14 00:50:29,0.21,1.98,0.00,19.33,24.07,27.38,5.03,27.07,1032.74,2041.99,2752.53,2774.54,3008.46,350.72,358.40,9.73,0000 0000 0000 0000 000000
2014-12-14 00:55:30,0.20,1.99,0.00,19.14,24.07,27.41,4.97,27.23,1032.73,2041.99,2750.49,2772.98,3006.91,349.28,357.16,9.76,0000 0000 0000 0000 000000
2014-12-14 01:00:31,0.20,2.00,0.00,19.27,24.07,27.43,4.92,27.18,1032.73,2041.99,2748.39,2771.51,3005.41,349.91,357.56,9.79,0000 0000 0000 0000 000000
2014-12-14 01:05:33,0.17,2.00,0.00,19.31,24.07,27.41,4.88,27.15,1032.73,2041.99,2746.52,2770.19,3004.04,349.68,357.29,9.82,0000 0000 0000 0000 000000
2014-12-14 01:10:34,0.16,2.01,0.00,19.29,24.07,27.38,4.93,27.02,1032.73,2041.99,2744.82,2769.02,3002.75,349.88,357.58,9.85,0000 0000 0000 0000 000000
2014-12-14 01:15:35,0.13,2.01,0.00,19.14,24.07,27.39,4.93,27.11,1032.73,2042.00,2743.56,2767.99,3001.74,350.32,358.14,9.88,0000 0000 0000 0000 000000
2014-12-14 01:20:36,0.14,2.01,0.00,19.24,24.07,27.42,4.95,27.11,1032.73,2042.00,2742.40,2766.94,3000.61,349.82,357.78,9.91,0000 0000 0000 0000 000000
2014-12-14 01:25:37,0.17,2.02,0.00,19.30,24.07,27.39,4.92,27.20,1032.74,2042.00,2740.68,2765.80,2999.25,349.68,357.32,9.94,0000 0000 0000 0000 000000
2014-12-14 01:30:38,0.17,2.02,0.00,19.27,24.07,27.41,4.89,27.15,1032.75,2042.00,2739.02,2764.56,2997.90,349.60,357.30,9.97,0000 0000 0000 0000 000000
2014-12-14 01:35:40,0.17,2.03,0.00,19.08,24.07,27.41,4.93,27.09,1032.81,2042.00,2737.42,2763.34,2996.55,349.97,357.82,10.00,0000 0000 0000 0000 000000
2014-12-14 01:40:41,0.15,2.03,0.00,19.24,24.06,27.43,4.98,27.27,1032.92,2042.00,2735.77,2762.12,2995.18,350.40,358.22,10.02,0000 0000 0000 0000 000000
2014-12-14 01:45:42,0.14,2.04,0.00,19.27,24.06,27.41,4.96,27.12,1032.93,2042.00,2734.38,2761.08,2994.00,349.63,357.49,10.05,0000 0000 0000 0000 000000
2014-12-14 01:50:44,0.17,2.04,0.00,19.27,24.06,27.38,4.86,27.00,1032.91,2042.00,2732.87,2759.91,2992.73,349.48,357.28,10.08,0000 0000 0000 0000 000000
2014-12-14 01:55:45,0.19,2.05,0.00,19.14,24.06,27.40,4.94,27.10,1032.83,2042.00,2731.16,2758.57,2991.27,350.13,358.06,10.11,0000 0000 0000 0000 000000
2014-12-14 02:00:46,0.24,2.06,0.00,19.21,24.05,27.41,4.95,27.14,1032.82,2042.00,2728.96,2756.89,2989.37,350.07,357.82,10.14,0000 0000 0000 0000 000000
2014-12-14 02:05:48,0.22,2.06,0.00,19.27,24.05,27.38,4.98,27.13,1032.88,2042.00,2726.71,2755.20,2987.58,349.52,357.24,10.17,0000 0000 0000 0000 000000
2014-12-14 02:10:49,0.23,2.07,0.00,19.28,24.05,27.37,4.97,27.13,1032.94,2042.00,2724.44,2753.58,2985.81,349.96,357.77,10.20,0000 0000 0000 0000 000000
2014-12-14 02:15:50,0.18,2.08,0.00,19.11,24.05,27.40,4.96,27.19,1032.93,2042.00,2722.52,2752.15,2984.24,350.00,357.94,10.23,0000 0000 0000 0000 000000
2014-12-14 02:20:51,0.22,2.08,0.00,19.23,24.05,27.40,4.93,27.08,1032.92,2041.99,2720.40,2750.72,2982.59,350.18,357.90,10.26,0000 0000 0000 0000 000000
2014-12-14 02:25:52,0.16,2.09,0.00,19.27,24.05,27.37,4.95,27.17,1033.00,2041.99,2718.64,2749.60,2981.45,350.06,357.81,10.29,0000 0000 0000 0000 000000
2014-12-14 02:30:53,0.15,2.09,0.00,19.31,24.05,27.36,4.97,27.21,1033.17,2041.99,2717.00,2748.47,2980.23,350.34,358.14,10.32,0000 0000 0000 0000 000000
2014-12-14 02:35:54,0.16,2.10,0.00,19.14,24.05,27.38,4.94,27.18,1033.18,2041.99,2715.27,2747.29,2979.01,349.89,357.92,10.35,0000 0000 0000 0000 000000
2014-12-14 02:40:55,0.19,2.10,0.00,19.23,24.04,27.37,4.95,27.27,1033.09,2041.99,2713.46,2745.97,2977.61,350.05,357.91,10.38,0000 0000 0000 0000 000000
2014-12-14 02:45:56,0.14,2.11,0.00,19.28,24.04,27.38,4.94,27.17,1033.07,2041.99,2712.00,2744.83,2976.29,350.06,357.96,10.41,0000 0000 0000 0000 000000
2014-12-14 02:50:58,0.18,2.11,0.00,19.20,24.04,27.36,4.98,27.14,1032.98,2041.99,2710.40,2743.64,2975.06,350.35,358.22,10.43,0000 0000 0000 0000 000000
2014-12-14 02:55:59,0.16,2.12,0.00,19.19,24.03,27.38,4.94,27.14,1033.08,2041.99,2708.81,2742.57,2973.81,349.94,357.88,10.46,0000 0000 0000 0000 000000
2014-12-14 03:01:00,0.16,2.12,0.00,19.25,24.03,27.38,4.94,27.03,1032.97,2041.99,2707.17,2741.45,2972.65,350.43,358.29,10.49,0000 0000 0000 0000 000000
2014-12-14 03:06:01,0.16,2.13,0.00,19.28,24.02,27.35,4.95,27.05,1033.05,2041.99,2705.51,2740.24,2971.45,350.23,357.92,10.52,0000 0000 0000 0000 000000
2014-12-14 03:11:03,0.16,2.13,0.00,19.19,24.02,27.36,5.02,27.27,1033.17,2041.99,2703.82,2739.00,2970.22,350.31,358.41,10.55,0000 0000 0000 0000 000000
2014-12-14 03:16:04,0.17,2.14,0.00,19.19,24.02,27.36,4.98,27.07,1033.19,2041.99,2702.20,2737.82,2968.86,350.43,358.35,10.58,0000 0000 0000 0000 000000
2014-12-14 03:21:05,0.16,2.14,0.00,19.23,24.02,27.38,4.93,27.29,1033.22,2041.99,2700.69,2736.70,2967.62,349.50,357.45,10.61,0000 0000 0000 0000 000000
2014-12-14 03:26:07,0.15,2.14,0.00,19.28,24.02,27.34,4.89,27.11,1033.21,2042.00,2699.13,2735.63,2966.43,349.39,357.45,10.64,0000 0000 0000 0000 000000
2014-12-14 03:31:08,0.16,2.15,0.00,19.11,24.02,27.35,4.97,27.11,1033.21,2042.00,2697.50,2734.44,2965.17,350.50,358.54,10.67,0000 0000 0000 0000 000000
2014-12-14 03:36:09,0.15,2.15,0.00,19.19,24.02,27.38,4.96,27.18,1033.22,2042.00,2695.86,2733.31,2964.01,350.07,358.05,10.70,0000 0000 0000 0000 000000
2014-12-14 03:41:11,0.16,2.16,0.00,19.26,24.00,27.36,4.95,27.13,1033.22,2042.00,2694.26,2732.18,2962.76,350.34,358.21,10.73,0000 0000 0000 0000 000000
2014-12-14 03:46:12,0.16,2.16,0.00,19.27,24.00,27.31,4.93,27.13,1033.22,2042.00,2692.76,2731.08,2961.57,349.67,357.59,10.76,0000 0000 0000 0000 000000
2014-12-14 03:51:14,0.16,2.17,0.00,19.04,24.00,27.32,4.98,27.11,1033.22,2042.01,2691.14,2729.93,2960.40,349.73,357.83,10.79,0000 0000 0000 0000 000000
2014-12-14 03:56:15,0.15,2.17,0.00,19.16,24.00,27.36,5.00,27.28,1033.22,2042.00,2689.73,2728.86,2959.26,349.70,357.92,10.82,0000 0000 0000 0000 000000
2014-12-14 04:01:16,0.10,2.18,0.00,19.27,24.00,27.37,4.98,27.21,1033.22,2042.01,2688.70,2728.02,2958.22,349.68,357.55,10.84,0000 0000 0000 0000 000000
2014-12-14 04:06:18,0.14,2.18,0.00,19.27,24.00,27.33,4.93,27.23,1033.22,2042.04,2687.50,2727.18,2957.25,349.99,357.64,10.87,0000 0000 0000 0000 000000
2014-12-14 04:11:19,0.12,2.19,0.00,19.11,24.00,27.35,4.99,27.18,1033.22,2042.00,2686.33,2726.20,2956.21,350.48,358.43,10.90,0000 0000 0000 0000 000000
2014-12-14 04:16:20,0.13,2.19,0.00,19.19,24.00,27.35,4.97,27.10,1033.22,2042.00,2684.97,2725.23,2955.20,350.18,358.27,10.93,0000 0000 0000 0000 000000
2014-12-14 04:21:22,0.14,2.19,0.00,19.28,24.00,27.31,4.93,27.13,1033.23,2042.00,2683.72,2724.39,2954.32,350.02,357.89,10.96,0000 0000 0000 0000 000000
2014-12-14 04:26:23,0.12,2.20,0.00,19.24,24.00,27.32,4.94,27.17,1033.28,2042.01,2682.63,2723.54,2953.43,349.71,357.73,10.99,0000 0000 0000 0000 000000
2014-12-14 04:31:24,0.11,2.20,0.00,19.13,24.00,27.31,4.94,27.18,1033.37,2042.00,2681.52,2722.73,2952.47,349.89,358.27,11.02,0000 0000 0000 0000 000000
2014-12-14 04:36:26,0.12,2.20,0.00,19.20,23.99,27.31,4.88,27.15,1033.53,2042.00,2680.32,2721.79,2951.59,349.61,357.60,11.05,0000 0000 0000 0000 000000
2014-12-14 04:41:27,0.16,2.21,0.00,19.25,23.99,27.32,5.02,27.25,1033.61,2042.00,2678.75,2720.77,2950.44,350.30,358.46,11.08,0000 0000 0000 0000 000000
2014-12-14 04:46:28,0.10,2.21,0.00,19.20,23.99,27.29,4.91,27.08,1033.66,2042.00,2677.60,2719.91,2949.58,350.11,358.28,11.11,0000 0000 0000 0000 000000
2014-12-14 04:51:29,0.13,2.22,0.00,19.14,23.98,27.32,4.97,27.05,1033.66,2042.01,2676.31,2718.97,2948.61,350.26,358.45,11.14,0000 0000 0000 0000 000000
2014-12-14 04:56:31,0.13,2.22,0.00,19.24,23.98,27.32,4.96,27.16,1033.62,2042.02,2675.16,2718.07,2947.63,350.11,358.22,11.17,0000 0000 0000 0000 000000
2014-12-14 05:01:32,0.12,2.22,0.00,19.28,23.98,27.31,4.92,27.13,1033.59,2042.02,2674.14,2717.24,2946.66,349.86,357.85,11.20,0000 0000 0000 0000 000000
2014-12-14 05:06:33,0.12,2.23,0.00,19.17,23.97,27.29,4.97,27.09,1033.63,2042.02,2672.91,2716.41,2945.76,349.76,357.82,11.23,0000 0000 0000 0000 000000
2014-12-14 05:11:34,0.11,2.23,0.00,19.15,23.97,27.33,5.00,27.18,1033.57,2042.00,2671.77,2715.58,2944.89,350.41,358.27,11.26,0000 0000 0000 0000 000000
2014-12-14 05:16:35,0.10,2.23,0.00,19.19,23.97,27.32,4.97,27.04,1033.59,2042.01,2670.67,2714.80,2944.04,350.29,358.53,11.28,0000 0000 0000 0000 000000
2014-12-14 05:21:37,0.11,2.24,0.00,19.27,23.97,27.28,4.84,27.13,1033.66,2042.01,2669.56,2713.93,2943.24,349.68,357.63,11.31,0000 0000 0000 0000 000000
2014-12-14 05:26:38,0.13,2.24,0.00,19.11,23.97,27.30,4.94,27.13,1033.69,2042.01,2668.38,2713.07,2942.28,350.65,358.83,11.34,0000 0000 0000 0000 000000
2014-12-14 05:31:39,0.12,2.24,0.00,19.12,23.97,27.34,4.94,27.18,1033.69,2042.01,2667.31,2712.20,2941.43,349.65,358.12,11.37,0000 0000 0000 0000 000000
2014-12-14 05:36:41,0.13,2.25,0.00,19.24,23.97,27.31,4.94,27.19,1033.70,2042.00,2666.00,2711.37,2940.48,350.08,357.99,11.40,0000 0000 0000 0000 000000
2014-12-14 05:41:42,0.15,2.25,0.00,19.25,23.97,27.32,4.94,27.26,1033.68,2042.00,2664.58,2710.45,2939.59,349.66,357.70,11.43,0000 0000 0000 0000 000000
2014-12-14 05:46:43,0.12,2.26,0.00,19.16,23.97,27.30,4.95,27.31,1033.71,2042.00,2663.35,2709.47,2938.64,349.18,357.48,11.46,0000 0000 0000 0000 000000
2014-12-14 05:51:44,0.14,2.26,0.00,19.18,23.97,27.30,4.96,27.17,1033.71,2042.00,2661.99,2708.46,2937.53,349.95,357.89,11.49,0000 0000 0000 0000 000000
2014-12-14 05:56:46,0.14,2.26,0.00,19.22,23.97,27.32,4.92,27.16,1033.71,2042.00,2660.68,2707.57,2936.49,350.09,358.07,11.52,0000 0000 0000 0000 000000
2014-12-14 06:01:47,0.15,2.27,0.00,19.24,23.97,27.30,4.85,27.20,1033.71,2042.00,2659.29,2706.42,2935.31,349.07,357.13,11.55,0000 0000 0000 0000 000000
2014-12-14 06:06:48,0.14,2.27,0.00,19.12,23.97,27.31,4.94,27.13,1033.71,2042.01,2657.86,2705.38,2934.16,350.31,358.59,11.58,0000 0000 0000 0000 000000
2014-12-14 06:11:49,0.12,2.28,0.00,19.16,23.97,27.29,4.97,27.13,1033.71,2042.01,2656.69,2704.52,2933.15,349.91,358.11,11.61,0000 0000 0000 0000 000000
2014-12-14 06:16:50,0.12,2.28,0.00,19.25,23.97,27.31,4.97,27.09,1033.71,2042.02,2655.54,2703.64,2932.18,349.54,357.76,11.64,0000 0000 0000 0000 000000
2014-12-14 06:21:52,0.15,2.28,0.00,19.25,23.97,27.30,4.96,27.09,1033.71,2042.01,2654.10,2702.56,2930.99,349.84,357.90,11.67,0000 0000 0000 0000 000000
2014-12-14 06:26:54,0.16,2.29,0.00,19.11,23.97,27.28,4.93,27.18,1033.71,2042.02,2652.58,2701.49,2929.89,349.66,357.86,11.69,0000 0000 0000 0000 000000
2014-12-14 06:31:55,0.15,2.29,0.00,19.18,23.97,27.32,4.93,27.08,1033.71,2042.02,2651.07,2700.47,2928.75,350.37,358.56,11.72,0000 0000 0000 0000 000000
2014-12-14 06:36:56,0.16,2.30,0.00,19.25,23.97,27.31,4.91,27.35,1033.71,2042.01,2649.57,2699.33,2927.62,349.67,357.58,11.75,0000 0000 0000 0000 000000
2014-12-14 06:41:57,0.15,2.30,0.00,19.21,23.97,27.29,4.93,27.19,1033.71,2042.00,2648.12,2698.24,2926.39,349.38,357.50,11.78,0000 0000 0000 0000 000000
2014-12-14 06:46:58,0.15,2.31,0.00,19.08,23.97,27.30,5.01,27.27,1033.71,2042.01,2646.75,2697.23,2925.30,350.50,358.82,11.81,0000 0000 0000 0000 000000
2014-12-14 06:52:00,0.13,2.31,0.00,19.18,23.97,27.31,4.91,27.26,1033.71,2042.00,2645.57,2696.26,2924.22,349.95,357.98,11.84,0000 0000 0000 0000 000000
2014-12-14 06:57:01,0.13,2.32,0.00,19.24,23.97,27.30,4.95,27.20,1033.71,2042.00,2644.26,2695.31,2923.23,350.44,358.51,11.87,0000 0000 0000 0000 000000
2014-12-14 07:02:02,0.14,2.32,0.00,19.20,23.97,27.30,4.91,27.11,1033.71,2042.00,2642.92,2694.29,2922.17,349.79,357.82,11.90,0000 0000 0000 0000 000000
2014-12-14 07:07:04,0.14,2.32,0.00,19.10,23.97,27.30,4.95,27.19,1033.71,2042.00,2641.57,2693.37,2921.17,350.22,358.65,11.93,0000 0000 0000 0000 000000
2014-12-14 07:12:05,0.13,2.33,0.00,19.20,23.97,27.29,4.94,27.05,1033.71,2042.00,2640.34,2692.44,2920.06,350.05,358.05,11.96,0000 0000 0000 0000 000000
2014-12-14 07:17:07,0.14,2.33,0.00,19.26,23.97,27.29,4.98,27.19,1033.71,2042.00,2638.92,2691.42,2919.03,350.33,358.49,11.99,0000 0000 0000 0000 000000
2014-12-14 07:22:08,0.15,2.34,0.00,19.16,23.97,27.27,4.88,27.24,1033.71,2042.00,2637.58,2690.47,2917.99,349.43,357.41,12.02,0000 0000 0000 0000 000000
2014-12-14 07:27:09,0.14,2.34,0.00,19.17,23.97,27.32,4.99,27.19,1033.71,2042.00,2636.17,2689.45,2916.83,350.14,358.19,12.05,0000 0000 0000 0000 000000
2014-12-14 07:32:10,0.16,2.35,0.00,19.23,23.97,27.30,4.95,27.18,1033.71,2042.00,2634.68,2688.35,2915.68,350.19,358.26,12.08,0000 0000 0000 0000 000000
2014-12-14 07:37:12,0.15,2.35,0.00,19.27,23.97,27.29,4.89,27.23,1033.71,2042.00,2633.16,2687.28,2914.61,349.97,357.92,12.10,0000 0000 0000 0000 000000
2014-12-14 07:42:13,0.14,2.36,0.00,19.09,23.96,27.29,5.00,27.29,1033.71,2042.00,2631.82,2686.39,2913.51,350.32,358.36,12.13,0000 0000 0000 0000 000000
2014-12-14 07:47:14,0.13,2.36,0.00,19.16,23.96,27.31,5.00,27.29,1033.71,2042.00,2630.57,2685.56,2912.63,349.86,358.05,12.16,0000 0000 0000 0000 000000
2014-12-14 07:52:15,0.15,2.36,0.00,19.26,23.96,27.30,4.91,27.13,1033.71,2042.00,2629.09,2684.54,2911.61,350.07,357.98,12.19,0000 0000 0000 0000 000000
2014-12-14 07:57:16,0.15,2.37,0.00,19.27,23.96,27.28,4.89,27.16,1033.71,2042.00,2627.60,2683.53,2910.45,349.19,357.31,12.22,0000 0000 0000 0000 000000
2014-12-14 08:02:18,0.14,2.37,0.00,19.12,23.95,27.26,5.03,27.18,1033.71,2042.00,2626.23,2682.52,2909.41,350.17,358.49,12.25,0000 0000 0000 0000 000000
2014-12-14 08:07:19,0.15,2.38,0.00,19.22,23.95,27.29,4.98,27.27,1033.71,2042.00,2624.80,2681.51,2908.29,350.49,358.52,12.28,0000 0000 0000 0000 000000
2014-12-14 08:12:19,0.15,2.38,0.00,19.27,23.95,27.27,4.95,27.20,1033.71,2042.01,2623.34,2680.37,2907.04,350.27,358.22,12.31,0000 0000 0000 0000 000000
2014-12-14 08:17:21,0.15,2.39,0.00,19.28,23.95,27.27,4.95,27.08,1033.71,2042.00,2621.99,2679.32,2905.86,350.01,357.86,12.34,0000 0000 0000 0000 000000
2014-12-14 08:22:22,0.16,2.39,0.00,19.12,23.95,27.29,4.90,27.12,1033.71,2042.00,2620.54,2678.20,2904.71,349.71,357.91,12.37,0000 0000 0000 0000 000000
2014-12-14 08:27:23,0.15,2.40,0.00,19.22,23.95,27.31,4.94,27.21,1033.71,2042.00,2619.02,2677.09,2903.53,350.09,358.22,12.40,0000 0000 0000 0000 000000
2014-12-14 08:32:25,0.16,2.40,0.00,19.23,23.95,27.29,4.93,27.16,1033.71,2042.00,2617.43,2675.99,2902.34,348.99,356.73,12.43,0000 0000 0000 0000 000000
2014-12-14 08:37:26,0.17,2.41,0.00,19.25,23.95,27.29,4.89,27.31,1033.71,2042.00,2615.84,2674.87,2901.15,349.64,357.66,12.46,0000 0000 0000 0000 000000
2014-12-14 08:42:27,0.15,2.41,0.00,19.06,23.95,27.29,4.97,27.21,1033.73,2042.00,2614.26,2673.78,2899.98,349.98,358.29,12.49,0000 0000 0000 0000 000000
2014-12-14 08:47:29,0.17,2.41,0.00,19.19,23.95,27.29,4.96,27.32,1033.75,2042.01,2612.83,2672.75,2898.88,349.84,358.15,12.51,0000 0000 0000 0000 000000
2014-12-14 08:52:29,0.14,2.42,0.00,19.23,23.95,27.28,4.92,27.15,1033.76,2042.01,2611.45,2671.75,2897.83,349.96,357.94,12.54,0000 0000 0000 0000 000000
2014-12-14 08:57:31,0.14,2.42,0.00,19.24,23.95,27.28,4.94,27.18,1033.76,2042.01,2610.10,2670.73,2896.71,350.39,358.21,12.57,0000 0000 0000 0000 000000
2014-12-14 09:02:32,0.17,2.43,0.00,19.10,23.95,27.28,4.95,27.19,1033.82,2042.00,2608.65,2669.67,2895.56,349.46,357.82,12.60,0000 0000 0000 0000 000000
2014-12-14 09:07:34,0.15,2.43,0.00,19.21,23.95,27.32,4.98,27.19,1033.88,2042.00,2607.12,2668.62,2894.50,349.68,357.84,12.63,0000 0000 0000 0000 000000
2014-12-14 09:12:35,0.13,2.44,0.00,19.26,23.95,27.31,4.93,27.23,1033.96,2042.00,2605.81,2667.68,2893.52,349.95,358.05,12.66,0000 0000 0000 0000 000000
2014-12-14 09:17:36,0.15,2.44,0.00,19.24,23.95,27.29,4.94,27.11,1034.08,2042.00,2604.51,2666.64,2892.40,350.05,358.43,12.69,0000 0000 0000 0000 000000
2014-12-14 09:22:37,0.13,2.45,0.00,19.12,23.95,27.30,5.02,27.24,1034.17,2042.00,2603.10,2665.70,2891.27,350.01,358.44,12.72,0000 0000 0000 0000 000000
2014-12-14 09:27:39,0.16,2.45,0.00,19.25,23.95,27.30,4.91,27.23,1034.18,2042.00,2601.72,2664.64,2890.12,350.04,358.34,12.75,0000 0000 0000 0000 000000
2014-12-14 09:32:40,0.14,2.45,0.00,19.29,23.95,27.30,5.05,27.17,1034.17,2042.00,2600.31,2663.58,2888.98,349.65,357.79,12.78,0000 0000 0000 0000 000000
2014-12-14 09:37:41,0.16,2.46,0.00,19.28,23.95,27.29,4.99,27.40,1034.18,2042.00,2598.83,2662.57,2887.88,350.23,358.38,12.81,0000 0000 0000 0000 000000
2014-12-14 09:42:42,0.15,2.46,0.00,19.14,23.95,27.31,4.97,27.26,1034.17,2042.00,2597.57,2661.53,2886.72,349.72,358.14,12.84,0000 0000 0000 0000 000000
2014-12-14 09:47:44,0.14,2.47,0.00,19.26,23.95,27.30,4.89,27.15,1034.18,2042.00,2596.06,2660.55,2885.71,349.77,358.05,12.87,0000 0000 0000 0000 000000
2014-12-14 09:52:45,0.16,2.47,0.00,19.29,23.95,27.29,4.99,27.29,1034.19,2042.00,2594.71,2659.49,2884.61,349.86,358.19,12.90,0000 0000 0000 0000 000000
2014-12-14 09:57:46,0.15,2.48,0.00,19.27,23.95,27.29,4.94,27.20,1034.18,2042.00,2593.16,2658.45,2883.47,349.71,357.75,12.92,0000 0000 0000 0000 000000
2014-12-14 10:02:47,0.17,2.48,0.00,19.17,23.95,27.29,4.98,27.21,1034.19,2042.00,2591.60,2657.27,2882.20,349.63,358.00,12.95,0000 0000 0000 0000 000000
2014-12-14 10:07:49,0.15,2.49,0.00,19.29,23.96,27.29,4.97,27.13,1034.19,2042.00,2590.14,2656.15,2880.96,350.13,358.20,12.98,0000 0000 0000 0000 000000
2014-12-14 10:12:50,0.16,2.49,0.00,19.30,23.97,27.29,4.98,27.20,1034.20,2042.00,2588.59,2655.06,2879.87,349.65,357.61,13.01,0000 0000 0000 0000 000000
2014-12-14 10:17:52,0.15,2.50,0.00,19.26,23.97,27.29,4.94,27.22,1034.21,2042.00,2587.16,2654.00,2878.91,350.31,358.65,13.04,0000 0000 0000 0000 000000
2014-12-14 10:22:53,0.13,2.50,0.00,19.19,23.97,27.30,4.89,27.17,1034.20,2042.00,2585.80,2653.03,2877.92,349.63,357.69,13.07,0000 0000 0000 0000 000000
2014-12-14 10:27:54,0.16,2.51,0.00,19.29,23.97,27.30,4.93,27.23,1034.20,2042.00,2584.60,2652.04,2876.81,349.76,357.91,13.10,0000 0000 0000 0000 000000
2014-12-14 10:32:55,0.15,2.51,0.00,19.33,23.97,27.28,4.98,27.27,1034.20,2042.00,2583.09,2650.97,2875.72,350.19,358.39,13.13,0000 0000 0000 0000 000000
2014-12-14 10:37:56,0.17,2.51,0.00,19.27,23.97,27.30,4.98,27.29,1034.20,2042.00,2581.51,2649.86,2874.59,350.05,358.26,13.16,0000 0000 0000 0000 000000
2014-12-14 10:42:58,0.15,2.52,0.00,19.19,23.97,27.27,4.92,27.14,1034.20,2041.98,2579.90,2648.80,2873.55,349.78,358.01,13.19,0000 0000 0000 0000 000000
2014-12-14 10:47:59,0.15,2.52,0.00,19.29,23.97,27.29,4.93,27.30,1034.20,2041.99,2578.63,2647.78,2872.43,349.52,357.75,13.22,0000 0000 0000 0000 000000
2014-12-14 10:53:00,0.14,2.53,0.00,19.33,23.97,27.28,4.88,27.13,1034.20,2041.99,2577.33,2646.79,2871.31,349.70,357.83,13.25,0000 0000 0000 0000 000000
2014-12-14 10:58:01,0.15,2.53,0.00,19.25,23.97,27.28,4.97,27.19,1034.20,2041.99,2575.91,2645.79,2870.15,350.02,358.32,13.28,0000 0000 0000 0000 000000
2014-12-14 11:03:03,0.17,2.54,0.00,19.19,23.97,27.31,4.97,27.27,1034.21,2041.99,2574.51,2644.74,2868.96,350.35,358.59,13.31,0000 0000 0000 0000 000000
2014-12-14 11:08:04,0.17,2.54,0.00,19.30,23.97,27.31,4.96,27.28,1034.21,2041.99,2572.88,2643.66,2867.82,350.03,358.21,13.33,0000 0000 0000 0000 000000
2014-12-14 11:13:05,0.16,2.55,0.00,19.33,23.97,27.30,4.96,27.18,1034.22,2041.99,2571.37,2642.61,2866.74,349.64,358.02,13.36,0000 0000 0000 0000 000000
2014-12-14 11:18:06,0.17,2.55,0.00,19.26,23.97,27.28,4.92,27.13,1034.27,2041.99,2569.79,2641.49,2865.57,349.78,358.00,13.39,0000 0000 0000 0000 000000
2014-12-14 11:23:08,0.15,2.56,0.00,19.17,23.97,27.32,5.00,27.22,1034.23,2041.99,2568.39,2640.45,2864.45,350.35,358.53,13.42,0000 0000 0000 0000 000000
2014-12-14 11:28:09,0.15,2.56,0.00,19.30,23.97,27.33,5.00,27.18,1034.27,2041.99,2566.95,2639.45,2863.39,349.96,358.29,13.45,0000 0000 0000 0000 000000
2014-12-14 11:33:10,0.16,2.57,0.00,19.33,23.97,27.31,4.90,27.19,1034.34,2041.99,2565.51,2638.37,2862.27,350.02,358.07,13.48,0000 0000 0000 0000 000000
2014-12-14 11:38:12,0.16,2.57,0.00,19.27,23.97,27.32,4.95,27.28,1034.48,2041.99,2563.91,2637.34,2861.12,350.19,358.50,13.51,0000 0000 0000 0000 000000
2014-12-14 11:43:13,0.14,2.58,0.00,19.21,23.97,27.33,4.93,27.28,1034.60,2041.99,2562.56,2636.29,2860.04,349.64,358.03,13.54,0000 0000 0000 0000 000000
2014-12-14 11:48:14,0.14,2.58,0.00,19.30,23.97,27.32,4.93,27.28,1034.64,2041.99,2561.27,2635.37,2859.02,349.97,358.42,13.57,0000 0000 0000 0000 000000
2014-12-14 11:53:15,0.15,2.59,0.00,19.33,23.97,27.29,4.94,27.25,1034.65,2041.99,2560.11,2634.40,2857.88,349.81,357.99,13.60,0000 0000 0000 0000 000000
2014-12-14 11:58:17,0.13,2.59,0.00,19.24,23.98,27.29,4.93,27.21,1034.56,2041.99,2558.84,2633.50,2856.89,349.56,357.93,13.63,0000 0000 0000 0000 000000
2014-12-14 12:03:18,0.13,2.59,0.00,19.21,23.98,27.33,4.97,27.12,1034.53,2041.99,2557.71,2632.61,2855.95,350.18,358.49,13.66,0000 0000 0000 0000 000000
2014-12-14 12:08:19,0.12,2.60,0.00,19.28,23.99,27.33,4.95,27.25,1034.56,2041.99,2556.53,2631.78,2854.97,349.81,358.16,13.69,0000 0000 0000 0000 000000
2014-12-14 12:13:21,0.12,2.60,0.00,19.29,23.99,27.32,4.97,27.27,1034.53,2041.99,2555.45,2630.90,2854.00,349.94,358.43,13.72,0000 0000 0000 0000 000000
2014-12-14 12:18:22,0.13,2.61,0.00,19.20,23.98,27.33,5.02,27.24,1034.51,2041.99,2554.26,2629.98,2853.07,350.11,358.51,13.74,0000 0000 0000 0000 000000
2014-12-14 12:23:23,0.13,2.61,0.00,19.24,23.98,27.33,4.97,27.26,1034.52,2041.99,2553.10,2629.12,2852.15,349.87,357.96,13.77,0000 0000 0000 0000 000000
2014-12-14 12:28:24,0.14,2.61,0.00,19.31,23.98,27.30,4.88,27.10,1034.47,2041.99,2551.89,2628.32,2851.25,349.75,357.89,13.80,0000 0000 0000 0000 000000
2014-12-14 12:33:26,0.13,2.62,0.00,19.33,23.97,27.30,4.97,27.07,1034.39,2041.99,2550.75,2627.53,2850.44,349.91,358.05,13.83,0000 0000 0000 0000 000000
2014-12-14 12:38:27,0.14,2.62,0.00,19.22,23.97,27.30,4.95,27.28,1034.30,2041.99,2549.59,2626.59,2849.39,349.68,357.90,13.86,0000 0000 0000 0000 000000
2014-12-14 12:43:28,0.14,2.62,0.00,19.24,23.97,27.33,5.00,27.23,1034.30,2041.99,2548.29,2625.67,2848.32,350.31,358.51,13.89,0000 0000 0000 0000 000000
2014-12-14 12:48:30,0.15,2.63,0.00,19.31,23.97,27.34,4.97,27.27,1034.27,2041.99,2546.98,2624.67,2847.27,349.90,357.91,13.92,0000 0000 0000 0000 000000
2014-12-14 12:53:31,0.15,2.63,0.00,19.33,23.97,27.30,4.94,27.16,1034.24,2041.98,2545.58,2623.66,2846.14,350.19,358.40,13.95,0000 0000 0000 0000 000000
2014-12-14 12:58:32,0.11,2.64,0.00,19.21,23.97,27.31,5.00,27.16,1034.21,2041.98,2544.26,2622.82,2845.09,350.04,358.49,13.98,0000 0000 0000 0000 000000